QPF
0.00 0.00 0.00 0.00 0.00 0.00 0.00 0.00 0.00 0.00 0.00 0.00 0.00 0.00 0.00 0.00 0.00 0.00 0.00 0.00 0.00 0.00 0.00 0.00 0.00 0.00 0.00 0.00 0.00 0.00 0.00 0.00 0.00 0.00 0.00 0.00 0.00 0.00 0.00 0.00 0.00 0.00 0.00 0.00 0.00
0.00 0.00 0.00 0.00 0.00 0.00 0.00 0.00 0.00 0.00 0.00 0.00 0.00 0.00 0.00 0.00 0.00 0.00 0.00 0.00 0.00 0.00 0.00 0.00 0.00 0.00 0.00 0.00 0.00 0.00 0.00 0.00 0.00 0.00 0.00 0.00 0.00 0.00 0.00 0.00 0.00 0.00 0.00 0.00 0.00
0.00 0.00 0.00 0.00 0.00 0.00 0.00 0.00 0.00 0.00 0.00 0.00 0.00 0.00 0.00 0.00 0.00 0.00 0.00 0.00 0.00 0.00 0.00 0.00 0.00 0.00 0.00 0.00 0.00 0.00 0.00 0.00 0.00 0.00 0.00 0.00 0.00 0.00 0.00 0.00 0.00 0.00 0.00 0.00 0.00
0.00 0.00 0.00 0.00 0.00 0.00 0.00 0.00 0.00 0.00 0.00 0.00 0.00 0.00 0.00 0.00 0.00 0.00 0.00 0.00 0.00 0.00 0.00 0.00 0.00 0.00 0.00 0.00 0.00 0.00 0.00 0.00 0.00 0.00 0.00 0.00 0.00 0.00 0.00 0.00 0.00 0.00 0.00 0.00 0.00
0.00 0.00 0.00 0.00 0.00 0.00 0.00 0.00 0.00 0.00 0.00 0.00 0.00 0.00 0.00 0.00 0.00 0.00 0.00 0.00 0.00 0.00 0.00 0.00 0.00 0.00 0.00 0.00 0.00 0.00 0.00 0.00 0.00 0.00 0.00 0.00 0.00 0.00 0.00 0.00 0.00 0.00 0.00 0.00 0.00
0.00 0.00 0.00 0.00 0.00 0.00 0.00 0.00 0.00 0.00 0.00 0.00 0.00 0.00 0.00 0.00 0.00 0.00 0.00 0.00 0.00 0.00 0.00 0.00 0.00 0.00 0.00 0.00 0.00 0.00 0.00 0.00 0.00 0.00 0.00 0.00 0.00 0.00 0.00 0.00 0.00 0.00 0.00 0.00 0.00
0.00 0.00 0.00 0.00 0.00 0.00 0.00 0.00 0.00 0.00 0.00 0.00 0.00 0.00 0.00 0.00 0.00 0.00 0.00 0.00 0.00 0.00 0.00 0.00 0.00 0.00 0.00 0.00 0.00 0.00 0.00 0.00 0.00 0.00 0.00 0.00 0.00 0.00 0.00 0.00 0.00 0.00 0.00 0.00 0.00
0.00 0.00 0.00 0.00 0.00 0.00 0.00 0.00 0.00 0.00 0.00 0.00 0.00 0.00 0.00 0.00 0.00 0.00 0.00 0.00 0.00 0.00 0.00 0.00 0.00 0.00 0.00 0.00 0.00 0.00 0.00 0.00 0.00 0.00 0.00 0.00 0.00 0.00 0.00 0.00 0.00 0.00 0.00 0.00 0.00
0.00 0.00 0.00 0.00 0.00 0.00 0.00 0.00 0.00 0.00 0.00 0.00 0.00 0.00 0.00 0.00 0.00 0.00 0.00 0.00 0.00 0.00 0.00 0.00 0.00 0.00 0.00 0.00 0.00 0.00 0.00 0.00 0.00 0.00 0.00 0.00 0.00 0.00 0.00 0.00 0.00 0.00 0.00 0.00 0.00
0.00 0.00 0.00 0.00 0.00 0.00 0.00 0.00 0.00 0.00 0.00 0.00 0.00 0.00 0.00 0.00 0.00 0.00 0.00 0.00 0.00 0.00 0.00 0.00 0.00 0.00 0.00 0.00 0.00 0.00 0.00 0.00 0.00 0.00 0.00 0.00 0.00 0.00 0.00 0.00 0.00 0.00 0.00 0.00 0.00
0.00 0.00 0.00 0.00 0.00 0.00 0.00 0.00 0.00 0.00 0.00 0.00 0.00 0.00 0.00 0.00 0.00 0.00 0.00 0.00 0.00 0.00 0.00 0.00 0.00 0.00 0.00 0.00 0.00 0.00 0.00 0.00 0.00 0.00 0.00 0.00 0.00 0.00 0.00 0.00 0.00 0.00 0.00 0.00 0.00
0.00 0.00 0.00 0.00 0.00 0.00 0.00 0.00 0.00 0.00 0.00 0.00 0.00 0.00 0.00 0.00 0.00 0.00 0.00 0.00 0.00 0.00 0.00 0.00 0.00 0.00 0.00 0.00 0.00 0.00 0.00 0.00 0.00 0.00 0.00 0.00 0.00 0.00 0.00 0.00 0.00 0.00 0.00 0.00 0.00
0.00 0.00 0.00 0.00 0.00 0.00 0.00 0.00 0.00 0.00 0.00 0.00 0.00 0.00 0.00 0.00 0.00 0.00 0.00 0.00 0.00 0.00 0.00 0.00 0.00 0.00 0.00 0.00 0.00 0.00 0.00 0.00 0.00 0.00 0.00 0.00 0.00 0.00 0.00 0.00 0.00 0.00 0.00 0.00 0.00
0.00 0.00 0.00 0.00 0.00 0.00 0.00 0.00 0.00 0.00 0.00 0.00 0.00 0.00 0.00 0.00 0.00 0.00 0.00 0.00 0.00 0.00 0.00 0.00 0.00 0.00 0.00 0.00 0.00 0.00 0.00 0.00 0.00 0.00 0.00 0.00 0.00 0.00 0.00 0.00 0.00 0.00 0.00 0.00 0.00
0.00 0.00 0.00 0.00 0.00 0.00 0.00 0.00 0.00 0.00 0.00 0.00 0.00 0.00 0.00 0.00 0.00 0.00 0.00 0.00 0.00 0.00 0.00 0.00 0.00 0.00 0.00 0.00 0.00 0.00 0.00 0.00 0.00 0.00 0.00 0.00 0.00 0.00 0.00 0.00 0.00 0.00 0.00 0.00 0.00
0.00 0.00 0.00 0.00 0.00 0.00 0.00 0.00 0.00 0.00 0.00 0.00 0.00 0.00 0.00 0.00 0.00 0.00 0.00 0.00 0.00 0.00 0.00 0.00 0.00 0.00 0.00 0.00 0.00 0.00 0.00 0.00 0.00 0.00 0.00 0.00 0.00 0.00 0.00 0.00 0.00 0.00 0.00 0.00 0.00
0.00 0.00 0.00 0.00 0.00 0.00 0.00 0.00 0.00 0.00 0.00 0.00 0.00 0.00 0.00 0.00 0.00 0.00 0.00 0.00 0.00 0.00 0.00 0.00 0.00 0.00 0.00 0.00 0.00 0.00 0.00 0.00 0.00 0.00 0.00 0.00 0.00 0.00 0.00 0.00 0.00 0.00 0.00 0.00 0.00
0.00 0.00 0.00 0.00 0.00 0.00 0.00 0.00 0.00 0.00 0.00 0.00 0.00 0.00 0.00 0.00 0.00 0.00 0.00 0.00 0.00 0.00 0.00 0.00 0.00 0.00 0.00 0.00 0.00 0.00 0.00 0.00 0.00 0.00 0.00 0.00 0.00 0.00 0.00 0.00 0.00 0.00 0.00 0.00 0.00
0.00 0.00 0.00 0.00 0.00 0.00 0.00 0.00 0.00 0.00 0.00 0.00 0.00 0.00 0.00 0.00 0.00 0.00 0.00 0.00 0.00 0.00 0.00 0.00 0.00 0.00 0.00 0.00 0.00 0.00 0.00 0.00 0.00 0.00 0.00 0.00 0.00 0.00 0.00 0.00 0.00 0.00 0.00 0.00 0.00
0.00 0.00 0.00 0.00 0.00 0.00 0.00 0.00 0.00 0.00 0.00 0.00 0.00 0.00 0.00 0.00 0.00 0.00 0.00 0.00 0.00 0.00 0.00 0.00 0.00 0.00 0.00 0.00 0.00 0.00 0.00 0.00 0.00 0.00 0.00 0.00 0.00 0.00 0.00 0.00 0.00 0.00 0.00 0.00 0.00
0.00 0.00 0.00 0.00 0.00 0.00 0.00 0.00 0.00 0.00 0.00 0.00 0.00 0.00 0.00 0.00 0.00 0.00 0.00 0.00 0.00 0.00 0.00 0.00 0.00 0.00 0.00 0.00 0.00 0.00 0.00 0.00 0.00 0.00 0.00 0.00 0.00 0.00 0.00 0.00 0.00 0.00 0.00 0.00 0.00
0.00 0.00 0.00 0.00 0.00 0.00 0.00 0.00 0.00 0.00 0.00 0.00 0.00 0.00 0.00 0.00 0.00 0.00 0.00 0.00 0.00 0.00 0.00 0.00 0.00 0.00 0.00 0.00 0.00 0.00 0.00 0.00 0.00 0.00 0.00 0.00 0.00 0.00 0.00 0.00 0.00 0.00 0.00 0.00 0.00
0.00 0.00 0.00 0.00 0.00 0.00 0.00 0.00 0.00 0.00 0.00 0.00 0.00 0.00 0.00 0.00 0.00 0.00 0.00 0.00 0.00 0.00 0.00 0.00 0.00 0.00 0.00 0.00 0.00 0.00 0.00 0.00 0.00 0.00 0.00 0.00 0.00 0.00 0.00 0.00 0.00 0.00 0.00 0.00 0.00
0.00 0.00 0.00 0.00 0.00 0.00 0.00 0.00 0.00 0.00 0.00 0.00 0.00 0.00 0.00 0.00 0.00 0.00 0.00 0.00 0.00 0.00 0.00 0.00 0.00 0.00 0.00 0.00 0.00 0.00 0.00 0.00 0.00 0.00 0.00 0.00 0.00 0.00 0.00 0.00 0.00 0.00 0.00 0.00 0.00
0.00 0.00 0.00 0.00 0.00 0.00 0.00 0.00 0.00 0.00 0.00 0.00 0.00 0.00 0.00 0.00 0.00 0.00 0.00 0.00 0.00 0.00 0.00 0.00 0.00 0.00 0.00 0.00 0.00 0.00 0.00 0.00 0.00 0.00 0.00 0.00 0.00 0.00 0.00 0.00 0.00 0.00 0.00 0.00 0.00
0.00 0.00 0.00 0.00 0.00 0.00 0.00 0.00 0.00 0.00 0.00 0.00 0.00 0.00 0.00 0.00 0.00 0.00 0.00 0.00 0.00 0.00 0.00 0.00 0.00 0.00 0.00 0.00 0.00 0.00 0.00 0.00 0.00 0.00 0.00 0.00 0.00 0.00 0.00 0.00 0.00 0.00 0.00 0.00 0.00
0.00 0.00 0.00 0.00 0.00 0.00 0.00 0.00 0.00 0.00 0.00 0.00 0.00 0.00 0.00 0.00 0.00 0.00 0.00 0.00 0.00 0.00 0.00 0.00 0.00 0.00 0.00 0.00 0.00 0.00 0.00 0.00 0.00 0.00 0.00 0.00 0.00 0.00 0.00 0.00 0.00 0.00 0.00 0.00 0.00
MSLP
1019.63 1019.57 1019.44 1019.16 1018.90 1018.67 1018.41 1018.12 1017.73 1017.33 1016.93 1016.44 1015.86 1015.31 1014.90 1014.47 1013.95 1013.89 1013.43 1013.08 1012.78 1012.62 1012.55 1012.32 1012.23 1012.34 1012.38 1012.58 1012.83 1013.01 1012.84 1012.56 1012.22 1011.80 1011.38 1011.15 1010.71 1009.81 1009.32 1008.94 1008.70 1008.54 1008.62 1008.86 1009.57
1019.81 1019.64 1019.48 1019.30 1018.99 1018.70 1018.42 1018.17 1017.83 1017.37 1016.90 1016.38 1015.79 1015.15 1014.79 1014.49 1014.03 1013.50 1013.15 1012.83 1012.74 1012.61 1012.48 1012.37 1012.30 1012.22 1012.48 1012.79 1012.94 1012.98 1013.13 1012.63 1012.33 1011.96 1011.61 1011.22 1010.94 1010.22 1009.52 1009.04 1008.54 1008.52 1008.81 1009.22 1009.73
1019.85 1019.89 1019.67 1019.45 1019.14 1018.82 1018.48 1018.13 1017.77 1017.35 1016.86 1016.41 1015.82 1015.06 1014.45 1014.23 1013.86 1013.22 1012.72 1012.64 1012.55 1012.45 1012.44 1012.46 1012.48 1012.41 1012.60 1012.81 1012.99 1013.05 1012.66 1012.48 1012.04 1011.95 1011.91 1011.14 1010.54 1010.36 1009.75 1008.65 1008.69 1008.43 1008.14 1008.56 1009.12
1020.01 1019.95 1019.77 1019.51 1019.26 1018.94 1018.61 1018.26 1017.93 1017.51 1017.03 1016.48 1015.85 1015.09 1014.27 1013.90 1013.71 1012.71 1012.71 1012.70 1012.58 1012.45 1012.36 1012.37 1012.36 1012.57 1012.89 1012.97 1013.08 1012.96 1012.49 1012.39 1011.98 1011.79 1011.66 1011.10 1010.53 1009.98 1009.65 1008.58 1008.82 1008.66 1008.31 1008.26 1008.31
1020.16 1019.99 1019.83 1019.58 1019.22 1018.93 1018.61 1018.27 1017.93 1017.58 1017.20 1016.65 1016.06 1015.31 1014.31 1014.07 1013.19 1012.59 1012.85 1012.80 1012.61 1012.48 1012.60 1012.62 1012.63 1012.83 1012.94 1012.99 1012.93 1012.85 1012.49 1012.26 1011.93 1011.82 1011.41 1011.03 1010.24 1009.98 1009.22 1008.94 1008.95 1008.52 1008.21 1007.96 1007.90
1020.22 1020.00 1019.79 1019.44 1019.10 1018.74 1018.35 1018.03 1017.69 1017.49 1017.24 1016.81 1016.41 1015.79 1015.38 1014.50 1012.93 1012.97 1012.99 1012.84 1012.72 1012.62 1012.72 1012.71 1012.72 1012.82 1012.99 1013.08 1013.09 1012.75 1012.49 1012.07 1011.53 1011.11 1011.27 1010.98 1010.29 1010.08 1009.30 1009.18 1008.73 1008.51 1008.13 1007.86 1007.71
1020.40 1020.14 1019.76 1019.43 1018.98 1018.57 1018.16 1017.76 1017.52 1017.19 1017.06 1016.89 1016.59 1016.24 1015.67 1013.87 1013.14 1013.09 1013.05 1012.92 1012.68 1012.58 1012.75 1012.70 1012.68 1012.85 1013.08 1013.16 1013.13 1012.87 1012.71 1011.91 1011.32 1011.27 1011.01 1010.93 1010.17 1009.76 1009.73 1009.57 1008.98 1008.52 1008.09 1007.56 1007.06
1020.51 1020.21 1019.73 1019.31 1018.82 1018.37 1017.96 1017.63 1017.28 1016.97 1016.78 1016.74 1016.60 1016.30 1014.98 1013.16 1013.04 1012.91 1012.89 1012.62 1012.50 1012.64 1012.67 1012.68 1012.83 1013.03 1013.21 1013.32 1013.25 1013.11 1013.00 1012.22 1011.61 1011.31 1011.24 1010.87 1010.04 1009.65 1009.92 1009.70 1008.77 1008.19 1007.80 1007.31 1006.41
1020.62 1020.23 1019.64 1019.07 1018.62 1018.15 1017.78 1017.42 1017.08 1016.91 1016.73 1016.57 1016.61 1016.34 1014.66 1013.19 1013.30 1013.39 1013.18 1012.95 1012.62 1012.57 1012.64 1012.74 1012.92 1013.47 1013.59 1013.62 1013.63 1013.56 1012.91 1012.74 1012.13 1011.69 1011.63 1011.39 1010.23 1010.14 1009.84 1009.73 1008.77 1007.79 1007.14 1006.85 1006.24
1020.63 1020.16 1019.57 1019.05 1018.55 1018.08 1017.57 1017.40 1017.04 1017.10 1016.76 1016.64 1016.64 1016.72 1014.90 1014.76 1014.60 1014.08 1013.31 1012.98 1012.76 1012.64 1013.01 1013.32 1013.74 1013.87 1014.10 1014.01 1013.57 1013.42 1013.47 1013.22 1012.87 1011.88 1011.37 1010.43 1009.75 1010.21 1009.93 1009.12 1008.49 1007.81 1007.05 1006.35 1005.91
1020.55 1020.08 1019.59 1019.32 1018.70 1018.02 1017.65 1017.38 1017.80 1018.04 1017.67 1017.94 1017.70 1017.23 1016.21 1015.58 1014.73 1014.14 1013.49 1013.09 1012.94 1013.06 1013.49 1014.02 1014.16 1014.19 1014.01 1014.05 1014.25 1014.19 1013.99 1013.55 1013.13 1012.50 1011.99 1010.85 1009.32 1009.84 1009.58 1008.79 1008.05 1007.52 1007.02 1006.54 1005.77
1020.74 1020.27 1019.73 1019.22 1018.84 1018.30 1018.41 1019.21 1020.37 1020.78 1019.29 1018.32 1017.81 1017.36 1016.66 1016.24 1015.52 1014.52 1014.05 1013.85 1013.56 1013.80 1014.07 1014.51 1014.36 1014.22 1014.47 1014.52 1014.42 1014.26 1013.97 1013.51 1013.10 1012.77 1012.23 1011.18 1009.36 1009.47 1009.20 1008.72 1007.96 1007.61 1007.24 1007.26 1006.91
1020.75 1020.22 1019.59 1019.25 1019.00 1019.23 1019.94 1020.44 1020.61 1020.68 1019.92 1018.51 1017.67 1017.16 1016.63 1016.46 1015.95 1015.25 1014.86 1014.53 1014.37 1014.46 1014.62 1014.89 1014.65 1014.51 1014.55 1014.57 1014.32 1014.30 1014.10 1013.64 1013.50 1013.15 1012.49 1011.38 1009.04 1009.27 1008.78 1008.11 1008.02 1007.92 1008.58 1008.39 1008.09
1020.82 1020.35 1019.84 1019.10 1019.08 1020.39 1020.59 1020.84 1020.78 1020.72 1020.01 1018.95 1017.53 1016.68 1016.53 1016.42 1016.34 1015.91 1015.57 1015.40 1015.23 1015.32 1015.28 1015.17 1015.03 1014.92 1014.89 1014.82 1014.61 1014.25 1014.08 1013.91 1013.61 1013.29 1012.17 1012.29 1009.68 1009.25 1008.32 1008.33 1008.56 1009.49 1009.63 1009.35 1008.79
1020.94 1020.30 1019.86 1018.64 1019.90 1020.90 1021.31 1020.88 1020.51 1020.46 1020.16 1019.29 1017.56 1016.55 1016.90 1017.20 1017.75 1016.44 1016.52 1015.79 1016.22 1016.11 1016.04 1015.84 1015.62 1015.48 1015.25 1014.94 1014.79 1014.59 1014.59 1014.18 1013.71 1013.34 1012.76 1012.44 1011.78 1008.85 1009.30 1009.25 1010.46 1010.71 1010.74 1010.33 1009.80
1020.83 1020.02 1019.78 1019.81 1020.47 1021.36 1021.17 1020.87 1020.56 1020.46 1020.04 1019.39 1018.53 1018.11 1017.91 1018.28 1018.40 1017.97 1017.51 1017.17 1017.37 1017.00 1016.89 1016.88 1016.42 1016.22 1016.06 1015.64 1015.47 1015.18 1014.79 1014.25 1013.90 1013.66 1012.97 1012.58 1012.44 1010.77 1011.32 1012.22 1011.90 1011.82 1011.62 1011.28 1010.53
1020.79 1019.99 1020.18 1020.80 1021.52 1021.24 1021.12 1020.92 1021.23 1021.07 1021.11 1020.68 1020.12 1019.86 1019.79 1020.00 1019.65 1019.58 1019.75 1019.84 1019.78 1018.99 1018.68 1018.23 1017.44 1017.35 1017.16 1016.53 1016.17 1015.86 1015.30 1014.80 1014.11 1013.99 1013.17 1013.12 1013.22 1012.43 1013.26 1013.46 1013.53 1013.17 1012.69 1012.16 1011.59
1020.85 1020.49 1021.11 1021.14 1021.52 1021.13 1020.90 1021.24 1021.92 1022.09 1021.58 1021.27 1021.09 1020.94 1021.20 1021.54 1021.34 1021.03 1021.00 1021.46 1021.52 1021.18 1020.73 1020.15 1018.89 1018.70 1018.42 1018.12 1017.77 1017.03 1016.65 1016.43 1015.50 1014.75 1013.79 1013.99 1012.95 1012.95 1013.95 1014.34 1014.10 1013.63 1013.40 1012.80 1011.80
1020.96 1021.15 1021.45 1021.23 1021.26 1020.62 1021.22 1022.46 1022.90 1022.56 1022.22 1021.98 1021.72 1021.95 1022.37 1022.52 1022.56 1022.33 1022.60 1022.88 1023.05 1022.59 1022.37 1021.77 1020.57 1019.85 1019.42 1018.90 1018.60 1017.92 1017.43 1017.35 1016.86 1016.13 1015.40 1013.75 1013.40 1013.89 1013.79 1013.89 1013.80 1013.81 1013.60 1013.09 1012.43
1021.68 1021.80 1021.91 1021.60 1021.12 1020.91 1022.08 1023.78 1023.76 1023.02 1022.52 1022.46 1022.58 1023.02 1023.31 1023.55 1023.45 1023.40 1023.45 1023.96 1023.90 1023.56 1023.23 1022.98 1021.87 1020.82 1020.03 1019.37 1018.78 1018.65 1018.50 1017.86 1017.58 1016.82 1015.54 1013.87 1013.58 1012.72 1013.81 1014.06 1014.18 1013.90 1013.51 1013.15 1012.53
1021.94 1022.13 1021.71 1021.52 1021.15 1021.77 1023.49 1024.36 1024.13 1023.25 1023.10 1023.21 1023.26 1023.65 1024.03 1024.25 1024.20 1024.09 1024.37 1025.04 1024.68 1024.22 1023.72 1023.60 1022.98 1021.79 1021.14 1020.14 1019.53 1019.32 1018.97 1018.92 1018.78 1017.90 1016.66 1015.31 1013.23 1013.77 1014.48 1014.78 1014.74 1014.48 1014.25 1013.76 1013.24
1022.42 1022.91 1021.91 1021.21 1022.54 1024.27 1024.75 1024.35 1024.23 1024.06 1023.69 1023.69 1023.91 1024.06 1024.57 1024.70 1024.64 1024.61 1024.99 1025.22 1025.16 1024.79 1024.67 1024.40 1023.98 1022.82 1021.58 1020.50 1020.42 1020.12 1019.93 1019.94 1019.79 1019.01 1018.55 1017.74 1013.42 1014.04 1013.96 1014.34 1014.74 1014.53 1014.37 1014.06 1013.76
1023.35 1023.66 1022.45 1022.02 1023.83 1025.21 1025.38 1025.08 1024.88 1024.55 1024.59 1024.57 1024.95 1025.03 1024.98 1024.97 1025.28 1025.56 1025.62 1025.95 1025.51 1025.60 1025.45 1025.06 1024.55 1023.62 1021.30 1021.17 1020.99 1021.00 1020.91 1021.04 1021.19 1020.74 1019.59 1018.69 1014.57 1014.55 1013.95 1013.45 1014.20 1014.12 1014.21 1014.01 1013.64
1023.83 1024.54 1024.31 1024.35 1025.36 1025.13 1025.52 1025.61 1025.53 1025.33 1025.38 1025.48 1025.83 1025.76 1025.74 1025.89 1026.07 1026.22 1026.33 1026.27 1026.22 1025.99 1025.82 1025.53 1025.01 1024.59 1022.98 1021.91 1022.29 1021.74 1021.28 1021.87 1022.01 1021.10 1019.94 1017.47 1016.03 1015.68 1015.10 1014.36 1013.86 1014.02 1014.20 1014.22 1013.91
1024.37 1025.87 1026.28 1026.00 1025.96 1025.63 1025.80 1026.07 1025.82 1025.92 1026.06 1026.14 1026.62 1026.60 1026.66 1026.95 1026.93 1026.85 1026.94 1026.88 1026.59 1026.26 1025.95 1025.76 1025.06 1024.56 1023.43 1023.38 1023.09 1021.87 1021.08 1021.98 1021.74 1020.76 1020.13 1016.50 1016.77 1014.67 1014.39 1014.37 1014.07 1014.31 1014.41 1014.32 1014.13
1024.73 1025.47 1026.47 1026.67 1026.30 1025.80 1026.18 1026.61 1026.51 1026.57 1026.35 1026.84 1026.93 1027.37 1027.40 1027.48 1027.44 1027.28 1027.39 1027.41 1027.12 1026.65 1026.40 1026.29 1025.34 1024.80 1023.28 1024.09 1023.20 1021.39 1021.06 1021.04 1020.26 1019.41 1017.97 1016.96 1015.47 1014.36 1014.35 1014.08 1014.11 1014.39 1014.39 1014.27 1014.12
1025.53 1025.47 1025.75 1027.45 1026.97 1026.42 1026.80 1026.85 1027.06 1026.90 1027.48 1027.25 1027.78 1028.16 1028.17 1027.90 1027.64 1027.47 1027.60 1027.42 1027.07 1026.75 1026.68 1026.71 1026.07 1025.81 1023.15 1024.16 1022.99 1020.93 1019.83 1019.24 1018.55 1017.74 1017.38 1016.46 1015.30 1014.79 1014.22 1014.08 1014.32 1014.40 1014.42 1014.27 1014.17
Thickness
5698 5702 5707 5714 5720 5726 5732 5737 5743 5748 5754 5759 5765 5771 5775 5779 5783 5785 5782 5789 5792 5795 5795 5795 5793 5789 5787 5778 5776 5769 5754 5743 5748 5752 5757 5769 5763 5784 5790 5784 5789 5791 5790 5796 5794
5691 5697 5702 5708 5715 5721 5727 5732 5737 5743 5750 5756 5762 5769 5773 5776 5780 5779 5786 5789 5790 5792 5790 5785 5780 5782 5773 5770 5767 5760 5745 5746 5756 5761 5759 5764 5762 5771 5775 5777 5782 5786 5791 5790 5788
5686 5692 5698 5703 5709 5715 5721 5727 5733 5739 5745 5751 5757 5764 5771 5774 5773 5771 5785 5787 5788 5789 5788 5784 5780 5775 5765 5764 5761 5753 5749 5755 5760 5761 5760 5762 5766 5769 5767 5771 5775 5779 5792 5793 5788
5681 5686 5691 5698 5704 5710 5716 5722 5728 5733 5739 5746 5752 5759 5767 5770 5743 5776 5780 5781 5783 5783 5782 5777 5773 5761 5753 5751 5756 5749 5757 5756 5760 5762 5758 5758 5767 5766 5767 5777 5779 5780 5789 5792 5789
5673 5680 5686 5692 5698 5704 5711 5717 5723 5728 5733 5739 5745 5752 5760 5750 5755 5776 5775 5775 5776 5777 5769 5764 5759 5753 5745 5749 5751 5746 5752 5755 5760 5757 5756 5758 5762 5762 5770 5776 5775 5778 5779 5786 5789
5665 5672 5679 5686 5693 5699 5706 5712 5718 5722 5726 5731 5735 5742 5742 5730 5766 5767 5768 5769 5769 5767 5761 5761 5755 5756 5746 5743 5740 5748 5749 5751 5757 5759 5750 5749 5755 5756 5768 5770 5770 5769 5774 5778 5780
5655 5663 5671 5678 5687 5693 5700 5706 5711 5716 5719 5721 5726 5730 5730 5738 5758 5759 5761 5761 5762 5761 5752 5754 5756 5747 5744 5735 5742 5740 5732 5745 5751 5748 5747 5746 5745 5746 5757 5757 5758 5762 5767 5774 5780
5647 5655 5664 5672 5679 5686 5693 5699 5704 5708 5712 5715 5718 5721 5722 5748 5750 5752 5754 5755 5757 5755 5752 5751 5747 5739 5733 5734 5728 5722 5717 5717 5736 5737 5739 5741 5728 5747 5747 5743 5750 5756 5760 5764 5776
5638 5646 5656 5666 5672 5678 5685 5691 5695 5699 5703 5707 5709 5709 5714 5740 5733 5737 5742 5740 5744 5744 5743 5742 5736 5719 5718 5706 5702 5701 5700 5694 5708 5727 5721 5721 5718 5735 5740 5738 5742 5751 5757 5758 5766
5630 5639 5649 5657 5663 5670 5678 5682 5687 5689 5693 5696 5699 5696 5711 5707 5715 5722 5732 5732 5729 5730 5722 5716 5706 5699 5693 5690 5678 5687 5683 5681 5680 5709 5712 5715 5721 5719 5729 5733 5736 5742 5747 5751 5758
5624 5633 5641 5646 5654 5663 5670 5673 5674 5674 5675 5673 5675 5679 5690 5698 5707 5709 5719 5719 5717 5711 5696 5692 5685 5677 5685 5679 5673 5669 5664 5664 5674 5687 5680 5697 5712 5709 5718 5723 5730 5739 5740 5742 5749
5615 5623 5631 5639 5646 5654 5656 5650 5642 5640 5659 5660 5664 5668 5677 5682 5680 5694 5704 5695 5693 5681 5681 5675 5664 5675 5669 5665 5661 5658 5654 5657 5665 5666 5668 5675 5695 5707 5709 5714 5724 5724 5724 5718 5723
5608 5617 5626 5633 5639 5640 5636 5635 5635 5635 5643 5652 5658 5661 5668 5673 5670 5675 5683 5681 5676 5667 5664 5654 5662 5664 5660 5654 5653 5648 5643 5648 5641 5646 5658 5658 5681 5689 5704 5710 5711 5713 5692 5695 5699
5602 5610 5619 5628 5633 5625 5627 5626 5628 5629 5632 5639 5649 5657 5661 5663 5659 5668 5669 5666 5660 5652 5651 5650 5655 5650 5647 5642 5646 5636 5645 5640 5636 5630 5631 5644 5636 5678 5693 5688 5687 5667 5668 5673 5680
5593 5604 5612 5624 5617 5614 5613 5618 5621 5622 5609 5628 5637 5655 5649 5645 5638 5653 5654 5658 5643 5643 5645 5640 5640 5638 5636 5638 5638 5632 5632 5631 5634 5629 5627 5632 5616 5671 5675 5668 5650 5650 5650 5653 5657
5587 5599 5605 5608 5607 5601 5605 5609 5613 5612 5601 5616 5622 5622 5630 5627 5627 5631 5635 5640 5636 5635 5633 5628 5633 5631 5628 5629 5625 5625 5624 5624 5624 5617 5612 5621 5617 5644 5633 5625 5629 5631 5633 5635 5639
5581 5593 5594 5593 5592 5595 5598 5603 5598 5590 5598 5599 5600 5604 5606 5605 5613 5612 5609 5605 5600 5610 5603 5609 5614 5614 5612 5610 5613 5610 5608 5595 5601 5598 5607 5617 5600 5626 5613 5611 5608 5608 5612 5619 5620
5575 5583 5581 5584 5585 5590 5594 5596 5581 5582 5587 5593 5592 5595 5591 5590 5595 5596 5598 5590 5587 5585 5584 5584 5597 5595 5597 5592 5587 5588 5589 5577 5566 5579 5595 5606 5599 5609 5600 5599 5599 5599 5598 5601 5609
5568 5573 5574 5579 5582 5589 5587 5562 5569 5577 5583 5584 5586 5584 5580 5579 5579 5583 5578 5573 5568 5570 5569 5565 5575 5583 5584 5582 5580 5578 5575 5579 5566 5577 5567 5599 5599 5591 5595 5592 5592 5590 5590 5590 5593
5557 5562 5565 5572 5579 5581 5574 5560 5565 5571 5576 5578 5579 5573 5569 5566 5570 5567 5567 5560 5557 5558 5557 5555 5559 5568 5572 5575 5576 5570 5570 5562 5563 5550 5558 5589 5589 5599 5577 5578 5579 5580 5583 5585 5587
5551 5557 5561 5567 5572 5565 5550 5549 5557 5566 5569 5570 5567 5564 5560 5559 5558 5558 5555 5543 5543 5547 5548 5541 5545 5557 5556 5556 5555 5556 5552 5549 5547 5550 5547 5553 5586 5572 5561 5562 5561 5565 5567 5569 5571
5540 5550 5555 5562 5552 5528 5537 5548 5553 5553 5557 5561 5559 5559 5555 5552 5551 5552 5546 5539 5533 5533 5530 5528 5525 5531 5543 5549 5541 5538 5536 5534 5526 5531 5519 5510 5566 5559 5561 5559 5553 5549 5549 5555 5557
5528 5528 5544 5551 5541 5526 5529 5536 5538 5546 5542 5549 5544 5544 5545 5549 5544 5538 5535 5524 5523 5519 5513 5517 5515 5517 5544 5537 5529 5524 5523 5513 5505 5497 5501 5493 5544 5542 5550 5556 5542 5539 5537 5539 5545
5519 5518 5521 5523 5512 5525 5525 5525 5529 5530 5531 5529 5528 5531 5533 5532 5525 5522 5519 5513 5508 5507 5506 5501 5502 5503 5512 5522 5509 5507 5514 5499 5481 5471 5485 5503 5512 5516 5520 5526 5531 5528 5525 5523 5527
5505 5499 5498 5510 5512 5513 5516 5517 5521 5521 5521 5521 5516 5515 5518 5514 5510 5509 5498 5494 5495 5494 5490 5485 5486 5489 5496 5485 5481 5489 5497 5474 5460 5473 5457 5502 5484 5510 5508 5503 5510 5508 5508 5508 5509
5501 5501 5489 5491 5497 5508 5505 5505 5508 5505 5515 5509 5509 5501 5501 5501 5501 5495 5483 5480 5479 5480 5475 5466 5467 5468 5479 5456 5461 5471 5478 5459 5459 5460 5470 5472 5481 5494 5493 5494 5491 5488 5488 5493 5496
5480 5484 5491 5473 5484 5499 5494 5493 5492 5498 5491 5497 5491 5486 5484 5486 5484 5482 5476 5472 5469 5463 5455 5447 5442 5432 5451 5433 5440 5445 5468 5461 5460 5467 5458 5454 5471 5472 5476 5475 5473 5475 5477 5478 5481